When you browse on this site, cookies collect data to enhance your experience and personalize the content and advertising you see.
Visit our Privacy Policy to learn more. By continuing to use the site, you agree to this use of cookies and data.
  • In Hungary
  • List of Countries
  • For 7 days
  • Water Temperature
  • Satellite Maps
  • Weather Map
  • News
  • Weather Widgets
  • user-avatar
    Login

    Hourly Weather Klyetsk

    Today, 18 February, Monday

    Time Temperature Precipitation Wind Pressure Humidity
    00:00 -1°C° 0 mm 3 mps 750 mmHg 93%
    01:00 -1°C° 0 mm 3 mps 751 mmHg 93%
    02:00 -2°C° 0 mm 2 mps 751 mmHg 93%
    03:00 -2°C° 0 mm 2 mps 751 mmHg 92%
    04:00 -2°C° 0 mm 2 mps 751 mmHg 90%
    05:00 -2°C° 0 mm 2 mps 751 mmHg 89%
    06:00 0°C° 0 mm 1 mps 752 mmHg 87%
    07:00 0°C° 0 mm 1 mps 752 mmHg 85%
    08:00 0°C° 0 mm 1 mps 752 mmHg 83%
    09:00 +1°C° 0 mm 1 mps 752 mmHg 77%
    10:00 +2°C° 0 mm 1 mps 753 mmHg 71%
    11:00 +1°C° 0 mm 0 mps 753 mmHg 65%
    12:00 +2°C° 0 mm 0 mps 753 mmHg 61%
    13:00 +3°C° 0 mm 0 mps 753 mmHg 58%
    14:00 +3°C° 0 mm 0 mps 753 mmHg 55%
    15:00 +4°C° 0 mm 1 mps 752 mmHg 58%
    16:00 +3°C° 0 mm 1 mps 752 mmHg 62%
    17:00 +2°C° 0 mm 1 mps 752 mmHg 65%
    18:00 +2°C° 0 mm 1 mps 752 mmHg 67%
    19:00 -1°C° 0 mm 2 mps 752 mmHg 68%
    20:00 -1°C° 0 mm 2 mps 752 mmHg 70%
    21:00 -1°C° 0 mm 2 mps 752 mmHg 71%
    22:00 -2°C° 0 mm 2 mps 752 mmHg 71%
    23:00 -2°C° 0 mm 2 mps 752 mmHg 71%

    Tomorrow, 19 February, Tuesday

    Time Temperature Precipitation Wind Pressure Humidity
    00:00 -2°C° 0 mm 3 mps 752 mmHg 72%
    01:00 -2°C° 0 mm 3 mps 752 mmHg 72%
    02:00 -2°C° 0 mm 3 mps 752 mmHg 73%
    03:00 -2°C° 0 mm 3 mps 751 mmHg 73%
    04:00 -2°C° 0 mm 3 mps 751 mmHg 73%
    05:00 -2°C° 0 mm 3 mps 750 mmHg 73%
    06:00 -3°C° 0 mm 4 mps 750 mmHg 76%
    07:00 -2°C° 0 mm 4 mps 750 mmHg 78%
    08:00 -2°C° 0 mm 4 mps 749 mmHg 80%
    09:00 -1°C° 0 mm 4 mps 749 mmHg 78%
    10:00 0°C° 0 mm 5 mps 748 mmHg 77%
    11:00 +2°C° 0 mm 5 mps 748 mmHg 75%
    12:00 +3°C° 0 mm 5 mps 747 mmHg 74%
    13:00 +3°C° 0 mm 6 mps 746 mmHg 73%
    14:00 +4°C° 0 mm 6 mps 746 mmHg 72%
    15:00 +5°C° 0 mm 5 mps 745 mmHg 76%
    16:00 +3°C° 0 mm 5 mps 745 mmHg 79%
    17:00 +2°C° 0 mm 5 mps 744 mmHg 83%
    18:00 +2°C° 0 mm 5 mps 744 mmHg 84%
    19:00 +1°C° 0 mm 5 mps 743 mmHg 85%
    20:00 +1°C° 0 mm 5 mps 743 mmHg 86%
    21:00 +1°C° 0 mm 5 mps 743 mmHg 86%
    22:00 0°C° 0 mm 4 mps 742 mmHg 86%
    23:00 0°C° 0 mm 4 mps 742 mmHg 86%

    Day after tomorrow, 20 February, Wednesday

    Time Temperature Precipitation Wind Pressure Humidity
    00:00 0°C° 0 mm 4 mps 742 mmHg 87%
    01:00 0°C° 0 mm 4 mps 742 mmHg 88%
    02:00 0°C° 0 mm 4 mps 742 mmHg 88%
    03:00 0°C° 0.2 mm 4 mps 742 mmHg 90%
    04:00 0°C° 0.2 mm 4 mps 742 mmHg 92%
    05:00 +1°C° 0.2 mm 4 mps 741 mmHg 93%
    06:00 0°C° 0.1 mm 4 mps 742 mmHg 93%
    07:00 0°C° 0.1 mm 4 mps 742 mmHg 93%
    08:00 0°C° 0.1 mm 4 mps 742 mmHg 93%
    09:00 +1°C° 0 mm 5 mps 742 mmHg 89%
    10:00 +1°C° 0 mm 6 mps 743 mmHg 85%
    11:00 +2°C° 0 mm 7 mps 743 mmHg 82%
    12:00 +2°C° 0 mm 7 mps 743 mmHg 79%
    13:00 +3°C° 0 mm 7 mps 743 mmHg 75%
    14:00 +3°C° 0 mm 7 mps 743 mmHg 72%
    15:00 +3°C° 0.1 mm 7 mps 743 mmHg 74%
    16:00 +2°C° 0.1 mm 7 mps 743 mmHg 75%
    17:00 +2°C° 0.1 mm 6 mps 743 mmHg 77%
    18:00 +2°C° 0 mm 6 mps 743 mmHg 78%
    19:00 +1°C° 0 mm 6 mps 743 mmHg 80%
    20:00 +1°C° 0 mm 6 mps 743 mmHg 81%
    21:00 +1°C° 0 mm 6 mps 744 mmHg 82%
    22:00 -1°C° 0 mm 6 mps 744 mmHg 83%
    23:00 -1°C° 0 mm 6 mps 744 mmHg 84%

    21 February, Thursday

    Time Temperature Precipitation Wind Pressure Humidity
    00:00 -1°C° 0 mm 6 mps 744 mmHg 84%
    01:00 -2°C° 0 mm 6 mps 744 mmHg 84%
    02:00 -2°C° 0 mm 6 mps 745 mmHg 85%
    03:00 -2°C° 0 mm 5 mps 745 mmHg 83%
    04:00 -2°C° 0 mm 5 mps 745 mmHg 82%
    05:00 -4°C° 0 mm 5 mps 745 mmHg 80%
    06:00 -4°C° 0 mm 5 mps 745 mmHg 78%
    07:00 -4°C° 0 mm 5 mps 745 mmHg 76%
    08:00 -4°C° 0 mm 5 mps 746 mmHg 74%
    09:00 -2°C° 0 mm 5 mps 746 mmHg 67%
    10:00 -2°C° 0 mm 6 mps 746 mmHg 60%
    11:00 -1°C° 0 mm 6 mps 746 mmHg 53%
    12:00 -1°C° 0 mm 6 mps 746 mmHg 51%
    13:00 -1°C° 0 mm 6 mps 747 mmHg 49%
    14:00 -1°C° 0 mm 6 mps 747 mmHg 46%
    15:00 -1°C° 0 mm 5 mps 747 mmHg 50%
    16:00 -1°C° 0 mm 4 mps 748 mmHg 54%
    17:00 -2°C° 0 mm 4 mps 748 mmHg 58%
    18:00 -2°C° 0 mm 3 mps 749 mmHg 61%
    19:00 -4°C° 0 mm 3 mps 750 mmHg 64%
    20:00 -5°C° 0 mm 3 mps 750 mmHg 67%
    21:00 -5°C° 0 mm 3 mps 751 mmHg 65%
    22:00 -5°C° 0 mm 3 mps 751 mmHg 64%
    23:00 -5°C° 0 mm 3 mps 752 mmHg 62%

    22 February, Friday

    Time Temperature Precipitation Wind Pressure Humidity
    00:00 -5°C° 0 mm 3 mps 752 mmHg 60%
    01:00 -5°C° 0 mm 3 mps 753 mmHg 58%
    02:00 -5°C° 0 mm 4 mps 753 mmHg 56%
    03:00 -5°C° 0 mm 4 mps 754 mmHg 56%
    04:00 -5°C° 0 mm 4 mps 754 mmHg 56%
    05:00 -7°C° 0 mm 4 mps 755 mmHg 56%
    06:00 -7°C° 0 mm 4 mps 755 mmHg 56%
    07:00 -7°C° 0 mm 5 mps 756 mmHg 57%
    08:00 -8°C° 0 mm 5 mps 757 mmHg 57%
    09:00 -8°C° 0 mm 5 mps 757 mmHg 54%
    10:00 -7°C° 0 mm 5 mps 758 mmHg 52%
    11:00 -7°C° 0 mm 5 mps 759 mmHg 49%
    12:00 -7°C° 0 mm 5 mps 759 mmHg 46%
    13:00 -6°C° 0 mm 5 mps 759 mmHg 43%
    14:00 -6°C° 0 mm 5 mps 759 mmHg 40%
    15:00 -6°C° 0 mm 5 mps 760 mmHg 41%
    16:00 -6°C° 0 mm 5 mps 760 mmHg 41%
    17:00 -7°C° 0 mm 5 mps 761 mmHg 41%
    18:00 -7°C° 0 mm 4 mps 761 mmHg 42%
    19:00 -7°C° 0 mm 4 mps 762 mmHg 43%
    20:00 -8°C° 0 mm 4 mps 762 mmHg 44%
    21:00 -8°C° 0 mm 4 mps 763 mmHg 45%
    22:00 -7°C° 0 mm 3 mps 763 mmHg 46%
    23:00 -7°C° 0 mm 3 mps 763 mmHg 47%

    23 February, Saturday

    Time Temperature Precipitation Wind Pressure Humidity
    00:00 -8°C° 0 mm 3 mps 764 mmHg 49%
    01:00 -7°C° 0 mm 2 mps 764 mmHg 50%
    02:00 -7°C° 0 mm 2 mps 764 mmHg 51%
    03:00 -7°C° 0 mm 2 mps 764 mmHg 52%
    04:00 -7°C° 0 mm 2 mps 764 mmHg 52%
    05:00 -7°C° 0 mm 2 mps 764 mmHg 52%
    06:00 -7°C° 0 mm 2 mps 764 mmHg 50%
    07:00 -7°C° 0 mm 2 mps 764 mmHg 47%
    08:00 -6°C° 0 mm 2 mps 764 mmHg 45%
    09:00 -6°C° 0 mm 2 mps 764 mmHg 45%
    10:00 -5°C° 0 mm 2 mps 764 mmHg 45%
    11:00 -6°C° 0 mm 3 mps 764 mmHg 45%
    12:00 -6°C° 0.1 mm 3 mps 763 mmHg 52%
    13:00 -5°C° 0.1 mm 4 mps 762 mmHg 59%
    14:00 -5°C° 0.1 mm 4 mps 762 mmHg 66%
    15:00 -5°C° 0 mm 4 mps 761 mmHg 67%
    16:00 -5°C° 0 mm 4 mps 761 mmHg 67%
    17:00 -6°C° 0 mm 5 mps 760 mmHg 68%
    18:00 -4°C° 0 mm 4 mps 760 mmHg 65%
    19:00 -4°C° 0 mm 3 mps 760 mmHg 62%
    20:00 -4°C° 0 mm 3 mps 760 mmHg 59%
    21:00 -4°C° 0 mm 3 mps 759 mmHg 59%
    22:00 -3°C° 0 mm 2 mps 759 mmHg 60%
    23:00 -3°C° 0 mm 2 mps 759 mmHg 60%
    Show more